Tracking 28799 objects as of 18-Apr-2024
HD Live streaming from Space Station
objects crossing your sky now

METEOR 2-5 DEB

Track METEOR 2-5 DEB now!
10-day predictions


NORAD ID: 38273
Int'l Code: 1979-095BT
Perigee: 802.9 km
Apogee: 807.5 km
Inclination: 81.2 °
Period: 100.8 minutes
Semi major axis: 7176 km
RCS: 0.0001 m2 (small)
Launch date: October 31, 1979
Source: Commonwealth of Independent States (former USSR) (CIS)
Launch site: PLESETSK MISSILE AND SPACE COMPLEX (PKMTR)

Note: This is SATELLITE DEBRIS
Your satellite tracking list
Your tracking list is empty




NASA's NSSDC Master Catalog

Two Line Element Set (TLE):
1 38273U 79095BT  24108.58874224  .00017580  00000-0  70544-2 0  9991
2 38273  81.2128 206.3742 0003194 133.4221 226.7226 14.28115446562415
Source of the keplerian elements: AFSPC